カタログに戻る

SL-12 DEB

LostHEO
NORAD 41808·DEBRIS·🇷🇺 Russia

打ち上げ Dec 25, 2006 から Baikonur Cosmodrome

Loading…

次のパス (今後24時間)

TLE

古いSource: Space-Track

元期: Dec 7, 2016, 17:25 UTC

1 41808U 06062N   16342.72621571  .00000000  00000-0  00000+0 0  9991
2 41808  64.6620 208.7305 4990304  23.4653 353.1895  5.73249200  6129

AllMySatでSL-12 DEBをリアルタイム追跡

Download on the App Store